Wind_Speed
35 35 35 36 39 42 42 40 39 39 39 39 38 35 34 32 31 32 32 33 34 34 34 34 34 35 35 34 34 33 33 33 33 34 35 36 37 38 39 40 42 43 44 46 47 48 50 52 54 56 57 59 59 58 57 56 54 53 52 52 50 50 50 52 53 53 55 56 57 59 62 64 65 66 67 67 68 69 70 71 73 74 76 77 79 80 81 82
34 34 34 34 36 38 39 39 40 40 39 37 35 33 31 30 29 29 30 30 31 31 31 32 32 33 32 32 32 32 32 32 33 34 35 36 37 38 39 40 41 43 44 45 47 49 51 53 55 55 56 55 54 52 50 48 47 47 47 47 47 47 48 50 51 52 53 55 55 57 60 62 63 64 65 66 67 68 69 70 71 71 72 72 74 75 76 76
34 33 33 34 35 37 38 38 38 37 36 33 32 31 29 29 28 27 27 27 27 28 28 29 30 30 30 31 31 31 32 32 33 34 35 36 37 38 39 40 41 43 44 46 48 50 51 53 53 53 51 50 48 46 44 43 43 43 44 45 45 46 46 48 50 50 52 54 54 55 57 60 62 64 65 67 67 69 69 70 70 70 70 69 70 72 73 73
33 32 32 33 34 34 35 35 34 34 32 31 30 29 28 27 27 26 26 25 25 26 27 28 28 29 29 30 30 31 32 32 33 34 35 36 36 37 38 40 41 43 45 47 48 50 50 50 49 47 45 43 42 40 40 40 41 42 43 44 44 44 45 46 48 49 51 53 54 55 57 60 63 64 66 67 68 69 70 70 70 70 70 70 70 72 73 75
30 29 28 30 33 33 33 33 33 32 30 28 27 26 25 25 24 24 24 24 24 25 26 27 27 28 28 29 29 30 31 32 33 33 34 34 35 37 38 40 43 45 46 47 48 49 48 46 43 40 38 37 37 37 38 38 39 40 42 43 43 43 44 44 46 48 49 52 54 56 59 61 62 63 65 67 68 69 70 70 71 72 73 74 76 77 78 79
26 27 27 28 31 32 33 32 31 30 28 26 25 24 23 22 22 22 22 22 23 24 25 26 26 27 27 28 29 30 30 30 31 32 33 34 36 37 40 42 43 45 46 47 47 46 43 40 37 34 33 33 34 35 35 36 37 38 40 42 43 43 43 43 45 47 48 52 55 56 58 59 60 62 64 65 66 68 69 71 73 75 77 80 81 82 83 83
22 24 27 27 28 30 30 29 29 28 27 25 23 22 21 21 21 21 21 21 22 23 24 24 25 26 26 27 27 28 28 29 30 32 33 35 36 38 40 42 44 45 45 44 43 40 36 33 32 31 31 31 32 33 33 34 35 36 38 41 43 43 43 42 43 46 49 52 55 55 56 58 59 61 62 63 65 67 69 72 75 77 79 82 83 84 85 84
22 22 24 25 26 27 26 26 26 26 25 23 22 22 21 21 21 20 20 20 21 22 23 23 24 25 25 25 26 27 27 29 30 32 33 35 37 39 41 42 43 43 42 39 37 34 32 30 29 28 28 29 30 31 32 33 34 35 37 39 42 44 44 44 45 47 50 50 52 54 55 57 58 59 61 62 64 66 69 72 75 77 79 81 83 84 85 84
24 23 22 23 24 24 24 24 24 24 23 22 21 22 22 21 20 20 19 20 20 21 22 23 23 24 24 25 25 26 27 28 30 32 34 36 38 40 41 41 41 39 37 34 32 30 29 27 26 26 27 27 28 29 31 32 33 34 36 39 41 44 46 47 48 48 49 49 50 52 53 55 56 58 59 61 64 66 69 71 73 75 77 79 81 83 84 84
24 24 24 24 24 24 24 24 24 23 22 22 21 21 21 20 20 20 19 19 20 21 21 22 23 23 23 24 24 25 27 29 31 33 35 37 38 39 39 38 37 34 32 29 27 26 26 25 25 25 25 26 28 29 31 33 34 35 36 38 41 44 47 48 48 47 48 50 50 51 52 54 56 57 58 61 63 66 68 70 72 73 75 77 79 81 83 85
26 26 27 26 26 26 25 24 23 23 22 21 20 19 20 20 20 19 19 19 20 20 20 21 21 21 21 23 24 26 29 31 33 34 35 36 37 37 36 34 32 29 27 25 24 24 23 23 23 24 26 27 29 31 32 34 35 37 37 38 40 42 44 46 47 47 48 49 50 51 52 54 56 57 59 61 64 67 68 69 71 72 74 76 78 81 83 85
28 27 27 28 28 27 25 24 22 22 21 19 17 17 20 20 19 19 19 19 19 18 19 19 19 20 22 24 26 28 31 32 33 34 35 35 34 34 32 30 27 25 23 22 21 21 21 22 24 25 27 28 30 31 33 34 36 38 39 40 40 41 42 44 46 47 47 49 51 52 53 55 57 58 60 63 66 68 69 70 71 73 75 77 79 80 82 83
28 26 27 28 27 26 25 24 23 22 21 17 16 17 19 19 18 18 18 18 18 18 19 19 21 22 24 26 28 30 32 32 33 33 33 33 32 30 28 25 23 21 20 19 19 20 21 23 24 26 27 28 30 32 34 35 37 38 39 41 42 43 43 44 46 48 49 50 52 53 54 56 58 60 63 66 68 69 70 71 73 75 77 78 80 80 81 82
28 25 27 27 25 23 22 22 23 22 21 17 14 15 17 18 18 17 17 18 18 19 20 21 22 24 25 27 29 30 31 31 31 31 30 29 28 26 24 21 20 19 18 18 19 20 22 23 24 25 28 29 31 33 36 37 38 39 39 40 42 44 45 46 48 50 52 53 54 55 55 57 59 61 64 67 68 70 71 72 74 76 78 79 80 81 81 83
30 27 26 26 24 22 21 22 22 22 21 17 12 13 14 15 16 17 18 18 19 20 21 22 23 25 26 28 29 29 30 30 29 29 28 26 24 22 20 18 17 17 17 18 20 21 22 24 25 27 29 30 31 35 38 39 40 40 40 40 42 45 48 50 51 52 54 56 56 57 57 57 59 61 65 68 69 70 71 73 75 77 79 80 81 82 83 84
33 30 27 26 25 26 26 25 23 21 21 17 13 14 13 13 16 17 18 18 19 20 20 22 23 25 26 27 27 28 28 28 27 26 25 23 21 19 17 17 17 17 18 20 21 22 24 26 27 29 30 31 33 36 39 40 41 41 41 42 42 46 50 52 54 55 56 58 58 59 59 58 59 62 65 68 70 71 72 74 76 78 80 81 82 83 85 85
34 32 30 28 27 28 27 25 22 20 20 18 15 15 12 14 15 15 17 18 18 19 20 21 23 24 25 26 27 27 27 26 26 24 22 20 18 16 16 17 17 18 19 20 21 23 25 27 29 31 33 35 38 38 38 39 41 42 43 44 44 46 49 51 54 57 57 58 59 60 61 61 62 64 66 69 71 72 73 74 76 78 80 82 84 85 86 87
34 33 33 31 30 28 26 23 21 20 20 17 17 17 15 15 16 15 17 18 18 19 20 22 23 23 24 25 25 26 26 25 24 21 19 17 15 16 17 17 18 18 19 21 22 24 26 28 30 32 35 37 38 38 37 38 39 40 42 44 46 46 48 50 53 56 58 58 60 61 62 64 65 66 67 69 71 73 74 75 77 80 81 83 85 87 88 89
33 33 33 31 30 28 25 23 20 20 20 17 18 18 18 18 17 18 18 18 18 19 20 21 22 23 24 25 25 25 25 23 21 18 16 15 15 16 17 17 18 19 20 21 23 25 27 30 32 34 35 35 35 35 36 38 39 40 41 43 46 47 48 50 53 55 58 59 61 62 64 67 68 68 68 69 72 74 75 77 79 82 83 84 86 88 89 91
34 33 32 30 27 24 22 20 19 21 21 18 19 18 16 17 17 18 18 17 18 18 19 20 21 22 23 24 25 25 24 21 18 16 15 15 16 17 18 18 19 20 20 22 25 27 30 31 33 34 34 34 34 35 37 38 40 42 43 44 47 49 50 51 53 56 59 61 63 64 66 69 70 69 70 70 72 75 77 78 81 83 84 85 87 89 91 92
33 33 29 25 23 20 19 17 17 22 22 19 20 17 15 17 18 18 17 17 18 17 18 20 22 23 24 25 25 24 21 18 17 15 15 16 17 18 18 18 20 21 22 24 26 29 31 32 33 34 34 35 36 37 38 39 41 43 45 46 48 51 53 53 53 56 60 62 65 67 68 70 71 71 72 72 73 75 78 80 83 85 85 86 89 91 92 92
29 28 24 21 22 23 24 22 18 21 23 20 18 16 16 20 21 20 18 18 18 19 21 22 22 23 24 25 24 22 19 17 16 15 16 17 18 18 18 19 21 23 24 26 28 30 32 33 34 34 35 36 38 39 40 41 43 45 47 49 50 51 54 56 56 57 60 63 66 69 69 69 71 73 73 74 74 76 79 82 84 86 86 88 91 92 92 92
27 27 25 24 26 27 29 30 24 22 23 20 16 17 20 22 23 21 20 20 21 22 23 23 22 23 24 24 23 20 18 17 16 16 17 18 18 19 19 21 23 25 26 27 29 31 33 33 34 35 36 38 40 42 43 44 46 48 50 51 52 52 53 56 58 59 61 64 66 68 70 70 71 73 75 76 76 77 79 82 85 87 88 90 92 93 93 93
29 32 31 29 30 31 34 35 28 25 24 20 18 20 23 24 23 22 22 22 23 24 23 22 22 23 24 22 21 19 18 17 17 18 18 19 19 20 22 24 26 28 28 29 31 32 33 34 34 36 37 39 42 44 46 48 49 50 51 52 53 54 55 56 59 60 62 65 67 68 70 71 71 72 75 77 78 78 79 82 85 87 89 91 93 94 95 96
32 35 36 33 32 34 35 32 27 27 26 22 20 21 21 21 21 21 22 23 24 24 22 22 23 23 22 21 19 18 18 18 18 19 20 20 21 23 25 26 28 29 30 31 32 33 34 35 36 37 38 40 42 44 47 50 52 52 53 54 55 56 59 60 61 62 63 65 68 69 70 71 71 72 74 77 79 80 80 82 86 88 90 92 93 94 97 99
36 37 37 37 36 36 33 27 25 27 27 25 23 21 19 19 21 22 23 23 23 23 22 22 22 22 21 19 19 18 18 19 20 21 21 22 23 25 27 28 28 29 31 32 34 34 35 36 37 38 39 41 43 45 47 50 53 54 55 56 58 59 62 64 65 64 65 66 69 71 71 72 72 72 75 77 79 80 80 82 85 88 90 92 94 96 99 101
39 39 39 40 39 37 32 27 25 25 25 26 24 20 19 21 23 24 23 23 23 22 22 22 22 20 19 19 19 19 19 20 21 22 23 24 25 27 28 29 30 30 32 33 34 36 37 38 39 39 40 41 43 46 48 51 53 55 57 58 60 62 64 66 68 68 68 68 71 73 74 74 74 74 76 78 79 80 80 81 85 88 90 93 95 98 100 101
41 39 40 41 40 36 31 28 26 24 24 23 20 20 21 22 24 24 24 24 24 22 22 22 21 20 19 19 19 20 21 22 22 23 24 25 27 28 29 30 31 32 33 34 36 38 39 39 40 40 41 42 44 46 49 51 54 56 58 60 61 63 66 68 70 71 71 70 71 74 75 76 77 78 78 78 79 80 80 81 84 88 91 94 97 99 100 101
42 40 40 40 38 34 28 25 24 24 22 20 19 20 22 23 24 24 24 24 23 22 22 21 20 19 19 19 21 22 23 23 23 24 25 27 28 29 30 32 33 34 35 36 38 39 39 40 41 42 42 44 46 48 50 52 54 56 59 61 63 65 67 69 71 73 73 72 71 74 77 76 77 79 79 80 81 81 82 82 85 88 91 95 97 98 99 100
43 43 41 38 34 29 24 23 24 23 20 18 20 22 23 24 25 24 25 24 23 22 22 20 19 19 19 21 22 23 24 24 24 25 26 28 29 30 32 33 34 36 37 38 39 39 40 41 42 43 44 46 47 49 52 54 55 57 59 62 64 66 68 69 71 73 74 74 72 73 78 79 79 80 81 82 83 83 84 84 84 87 90 93 96 97 99 100
43 42 40 35 30 25 23 25 25 21 19 20 22 24 25 26 25 25 25 24 23 22 21 19 19 19 21 22 23 24 24 25 25 26 27 28 29 31 33 34 35 36 37 38 39 40 42 43 44 45 46 48 49 51 53 56 58 60 61 63 65 67 68 69 70 72 74 76 74 74 77 80 80 81 82 83 84 84 85 84 84 86 89 91 94 96 98 100
42 40 35 30 27 25 26 26 23 20 20 22 24 25 26 26 25 25 25 24 22 22 21 19 19 21 22 24 24 24 25 26 26 27 28 29 30 32 34 35 35 35 36 37 39 40 42 44 45 47 48 50 52 53 55 58 60 62 64 65 66 66 67 67 68 70 73 76 76 74 76 79 80 82 83 84 85 85 86 85 83 85 87 89 92 95 97 100
40 36 31 28 27 27 28 26 22 20 22 24 26 26 26 25 25 25 24 23 22 21 20 20 21 23 24 25 25 26 27 27 28 28 29 30 32 33 34 34 34 34 35 37 39 41 43 45 46 48 50 52 54 56 57 59 61 63 65 67 67 67 68 68 68 68 70 74 76 75 75 77 79 81 83 84 86 86 86 86 84 84 87 88 91 94 97 100
37 32 27 27 29 29 27 24 22 22 25 26 27 26 26 26 25 24 23 23 21 21 20 21 23 24 25 26 27 28 29 29 29 29 30 31 33 34 34 34 34 36 37 39 40 42 43 46 48 50 53 55 56 58 60 61 63 66 68 69 70 70 70 71 71 69 69 73 76 74 74 77 78 80 82 84 85 86 86 86 84 84 86 88 91 94 97 100
33 29 27 29 29 27 24 22 23 25 27 27 27 26 26 26 25 24 23 22 21 21 22 23 24 26 27 28 29 30 31 31 31 30 31 33 34 35 35 36 37 38 39 40 42 45 46 48 51 53 55 57 59 62 64 66 67 69 70 71 71 71 71 72 72 72 70 72 75 74 72 76 78 80 82 83 85 86 86 86 85 84 86 88 91 94 97 99
30 29 29 27 25 23 23 24 26 27 26 26 25 25 26 26 25 24 23 22 21 21 23 24 26 27 29 30 31 32 32 32 32 32 33 34 35 36 37 38 39 40 41 42 44 47 50 51 53 55 58 60 62 66 68 70 71 73 72 71 71 72 72 72 72 72 71 71 76 76 72 73 76 78 80 82 83 86 87 87 86 84 85 88 90 94 96 98
29 27 25 23 22 23 25 25 26 25 24 24 24 25 25 25 24 23 22 21 21 22 24 25 27 28 29 31 31 32 33 33 33 34 35 36 37 37 38 39 41 42 43 45 47 49 51 53 55 58 61 63 65 68 70 72 74 75 75 73 72 72 73 75 74 73 71 70 73 77 75 73 75 77 79 81 83 86 87 88 87 84 85 88 90 94 96 98
26 24 22 22 23 24 24 24 24 23 23 23 24 25 25 24 24 22 22 21 22 24 25 26 28 30 31 32 32 33 34 34 35 36 37 38 38 39 40 41 43 44 46 48 49 51 53 55 58 60 62 65 66 69 71 74 75 76 76 75 74 74 74 77 78 76 73 70 71 76 76 75 76 78 80 82 84 85 87 88 86 85 85 88 90 93 96 98
24 22 22 23 23 23 23 22 22 23 23 24 25 25 25 24 23 22 22 22 23 25 26 28 29 31 32 33 33 34 35 35 36 37 38 39 40 41 42 43 45 47 49 50 52 54 56 58 60 61 64 66 68 69 72 74 75 75 75 76 76 76 75 77 80 80 78 75 73 75 77 76 77 79 80 82 83 85 86 87 86 85 85 88 91 93 96 98
24 23 23 23 22 22 22 22 22 23 23 24 24 24 24 24 23 22 22 23 25 26 28 29 31 32 33 34 35 35 36 37 38 39 40 41 42 43 44 46 47 49 51 54 55 57 58 60 62 64 66 68 69 70 73 74 74 75 76 77 78 78 77 77 80 82 81 79 77 78 80 78 78 80 81 82 83 83 85 85 85 84 85 88 91 93 95 98
24 24 24 23 22 22 22 22 22 23 23 23 24 24 24 23 23 22 23 24 26 28 29 31 32 33 34 35 36 37 38 39 40 41 42 43 45 46 48 49 51 52 55 57 58 59 60 61 64 65 67 70 71 72 73 73 74 76 78 80 80 80 80 79 80 82 83 82 79 80 83 82 79 80 81 81 82 82 83 84 84 83 84 87 91 93 95 97
25 26 25 24 23 23 23 22 22 22 22 23 24 24 24 23 23 23 24 26 28 30 31 32 33 34 35 36 37 39 40 41 42 44 45 46 48 49 51 52 54 56 58 59 60 62 62 63 65 67 68 72 73 72 73 74 75 77 79 81 83 83 82 81 81 82 84 84 81 79 82 83 81 80 81 81 82 82 82 83 83 83 84 87 90 93 95 97
27 26 25 24 24 23 23 22 22 22 23 24 24 24 24 24 24 25 26 28 30 31 33 34 34 35 36 37 39 40 41 42 44 46 47 48 50 52 53 55 56 58 59 61 62 64 64 64 65 67 68 71 73 73 74 75 77 78 80 83 84 84 83 82 82 82 83 85 82 78 79 83 82 81 82 82 82 82 82 83 82 82 83 86 89 92 95 97
27 26 25 25 24 23 23 23 23 24 24 25 25 25 25 24 25 26 28 30 31 33 34 35 35 36 37 39 40 41 43 44 45 47 49 50 52 54 55 56 58 60 61 62 64 65 66 67 68 68 67 68 71 72 73 75 78 79 81 82 84 85 84 83 82 82 82 83 82 77 77 81 83 82 82 82 82 82 82 82 82 81 82 85 88 91 94 97
27 26 26 25 24 23 23 24 24 25 25 25 26 26 25 25 26 28 30 31 33 34 35 36 37 38 39 40 41 43 44 46 47 49 50 52 53 55 57 58 60 61 62 63 64 66 68 70 72 73 72 71 73 75 75 77 78 80 81 83 84 86 85 84 83 82 80 80 82 80 75 75 79 81 82 83 82 81 80 81 80 80 81 84 87 90 93 96
27 26 26 24 24 23 24 25 25 26 26 26 27 27 26 27 28 29 31 32 34 35 36 37 39 40 41 42 43 45 46 48 49 51 52 53 55 57 58 60 61 61 62 63 64 66 69 71 74 77 78 77 78 80 80 80 80 81 82 83 83 84 85 85 83 82 80 78 79 80 76 71 73 77 79 80 80 78 78 79 78 78 81 83 87 90 93 96
26 26 25 24 24 25 25 26 26 27 27 27 28 28 28 28 29 30 32 33 35 36 38 39 40 41 43 44 45 47 48 50 52 53 54 55 56 58 59 60 61 62 63 64 65 67 69 72 74 77 80 79 79 81 81 82 82 81 80 80 82 84 86 86 84 82 80 77 75 75 75 71 70 74 77 77 76 75 75 76 76 77 80 83 86 89 92 96
26 26 25 25 25 26 26 27 27 28 28 28 29 29 29 30 30 31 32 34 36 37 39 40 42 43 44 45 47 48 50 52 53 54 55 56 57 58 59 60 62 63 64 66 68 69 70 72 73 75 79 80 79 80 81 81 80 79 78 79 82 85 87 86 83 80 78 76 72 70 71 72 71 73 76 76 75 74 73 74 75 77 81 84 86 89 92 96
26 27 26 26 27 27 27 28 28 29 29 30 30 30 31 31 31 32 33 35 37 38 39 41 43 44 45 47 48 50 52 53 54 55 56 57 58 59 61 63 64 65 67 68 70 71 71 72 72 72 76 79 79 79 79 77 76 76 78 80 82 84 85 84 80 76 73 72 70 67 67 70 72 73 74 74 73 73 72 72 75 78 82 85 87 90 94 97
27 27 27 27 28 28 28 29 29 30 30 31 32 32 32 32 33 34 35 36 37 39 40 42 43 45 46 48 49 51 52 54 55 56 57 59 60 61 63 65 66 68 69 70 72 73 72 72 71 70 73 76 76 75 75 74 74 75 77 79 81 82 82 81 77 73 70 68 68 67 65 66 68 70 71 71 71 71 71 72 76 80 83 86 89 92 95 98
28 28 28 28 29 29 30 30 31 31 31 32 33 34 34 34 35 35 36 37 38 40 42 43 44 46 47 49 50 52 54 55 56 58 59 61 63 64 65 67 69 70 71 71 72 73 72 72 72 69 69 70 70 69 71 73 74 75 76 77 79 79 79 79 76 72 69 67 66 66 65 65 65 65 66 68 69 70 71 73 77 81 84 88 91 94 97 100
28 29 29 29 29 31 31 31 32 32 33 34 35 35 36 36 37 37 38 39 41 42 43 45 46 48 49 51 52 54 55 57 58 60 62 63 64 66 67 69 70 71 71 71 71 72 72 71 70 67 65 65 67 68 70 73 74 74 74 75 76 76 76 78 78 73 70 69 67 66 65 64 63 62 62 64 68 71 73 75 79 82 85 89 93 96 99 101
Wind_Direction
176 180 186 189 192 194 196 196 198 201 205 209 211 213 215 216 218 221 223 226 229 232 235 239 242 245 249 252 255 258 261 264 266 268 271 274 276 279 282 285 287 289 290 291 291 292 292 293 294 295 295 296 297 297 297 296 296 296 297 299 302 305 306 306 306 305 303 302 301 301 300 299 298 297 296 294 293 293 293 294 294 294 293 292 292 291 290 289
179 182 186 189 191 193 194 196 200 204 207 210 212 213 215 216 218 221 223 226 229 233 237 240 244 247 251 254 257 260 263 265 268 272 275 277 280 283 286 288 289 290 291 292 293 294 295 296 298 298 299 299 298 297 297 298 300 302 304 306 308 308 307 305 304 303 302 302 302 302 302 302 302 301 301 301 302 302 302 302 301 300 299 298 298 296 295 294
182 185 186 187 190 193 196 200 204 207 209 210 212 214 216 217 219 222 224 227 231 234 238 242 246 249 252 255 258 262 265 268 272 275 278 281 284 286 288 289 290 291 292 294 295 297 299 300 300 300 299 298 298 298 300 303 307 308 308 308 308 307 306 305 304 304 304 305 306 307 307 308 309 310 312 312 312 311 310 309 308 307 306 305 304 303 302 301
184 186 186 187 189 193 197 201 204 207 208 210 212 215 216 218 220 223 225 228 232 236 240 243 247 250 254 257 261 265 269 273 276 279 282 285 287 288 289 290 292 293 295 297 299 300 301 301 300 300 300 300 302 305 308 309 310 309 308 308 307 307 307 307 307 308 310 311 313 314 315 317 319 319 318 318 317 316 316 316 316 315 314 313 313 312 312 311
185 188 187 187 189 191 195 200 204 206 208 209 211 214 216 219 221 223 226 230 234 238 241 245 249 253 257 260 265 269 273 276 278 282 284 287 288 290 291 293 295 297 299 300 301 301 301 300 300 301 303 306 309 311 311 311 311 310 309 308 309 309 309 310 312 315 318 318 319 321 323 323 322 321 321 321 321 322 321 322 321 322 322 322 322 321 320 319
184 187 188 189 191 192 197 201 205 206 206 207 209 212 214 217 220 223 226 231 236 240 244 248 252 257 261 265 269 272 275 279 281 284 287 289 290 292 295 297 299 301 302 302 302 302 302 302 303 305 308 311 311 310 310 310 310 310 311 312 312 312 313 316 319 321 322 323 325 328 326 324 323 323 324 324 325 326 326 327 328 329 328 328 327 325 323 322
183 187 190 192 192 194 198 201 203 204 204 205 206 209 212 215 219 222 227 232 238 242 247 251 255 259 264 267 270 274 278 282 284 287 289 292 294 297 299 300 302 303 303 303 303 302 302 303 305 309 312 311 310 309 310 311 312 314 315 315 314 315 316 319 322 323 325 328 329 328 325 325 326 327 327 328 328 329 331 332 333 332 331 330 328 326 325 324
185 189 192 194 194 196 197 197 200 201 201 202 204 207 209 214 218 223 228 234 240 245 249 253 257 261 264 268 272 277 281 284 287 290 292 295 298 300 301 303 303 304 304 303 302 301 302 305 309 311 310 309 310 312 313 314 316 318 316 315 316 319 321 322 325 327 329 331 329 327 328 329 329 329 330 331 331 333 335 336 335 334 333 331 329 327 326 325
185 189 191 193 194 196 195 193 196 198 199 201 204 209 211 214 219 223 229 236 242 247 251 256 259 263 267 271 275 279 282 285 289 292 296 299 301 302 303 303 304 304 303 302 303 304 307 310 311 310 309 311 313 314 315 316 317 317 316 317 321 325 326 327 330 332 332 330 328 329 332 332 331 332 333 333 334 337 338 338 336 335 334 332 330 329 328 328
185 189 189 190 193 195 195 193 194 196 198 201 206 211 214 217 221 225 231 238 244 250 255 259 263 267 271 274 278 282 285 288 292 295 299 301 302 303 303 304 304 304 303 304 306 308 310 311 312 313 315 315 316 316 316 317 317 316 317 322 328 330 331 332 333 333 330 328 329 332 333 333 334 335 334 334 337 340 340 338 337 336 335 333 333 332 332 332
187 191 191 191 194 196 196 194 193 195 198 203 208 214 218 220 224 228 235 241 247 253 258 262 266 270 274 278 283 286 288 291 295 299 301 302 302 303 304 304 303 303 304 306 308 310 312 314 317 318 318 318 318 317 319 319 317 316 320 325 330 332 334 333 331 330 329 330 332 333 334 334 336 336 335 338 342 343 342 340 339 338 336 336 335 335 336 336
191 194 193 193 195 196 196 194 193 195 198 203 208 216 222 223 228 234 239 245 250 255 259 264 269 274 279 284 288 289 291 295 298 301 302 303 304 305 304 303 303 305 307 309 311 314 316 319 320 320 321 319 318 320 321 318 316 320 326 330 332 333 333 331 329 330 332 332 331 332 334 335 337 338 340 344 345 345 343 342 341 340 339 338 338 338 338 339
193 196 197 195 196 196 194 192 193 195 197 201 206 217 226 229 234 240 246 251 254 258 262 268 274 279 284 288 289 291 294 298 301 302 303 304 305 304 303 303 306 308 309 311 314 316 320 322 322 324 323 320 322 324 319 316 319 328 333 335 336 336 335 333 332 332 333 332 332 334 337 338 339 342 346 347 346 345 343 342 342 341 341 341 340 340 340 342
192 197 201 197 195 196 197 195 193 194 195 197 208 223 232 236 242 246 251 256 259 263 268 274 280 284 286 288 290 293 297 300 302 303 305 306 304 302 302 305 306 306 308 313 316 319 323 324 324 326 323 324 328 323 317 322 330 335 336 337 339 338 337 337 336 337 337 337 339 340 341 341 342 345 348 348 346 344 343 343 343 344 344 343 343 342 343 344
192 195 201 198 192 191 202 208 197 193 194 193 207 227 234 241 250 253 256 261 264 269 274 279 283 285 286 289 292 295 298 300 302 304 305 302 299 299 302 303 303 304 308 311 316 320 321 321 324 324 325 330 327 320 323 332 336 336 337 338 340 340 341 341 340 341 342 343 343 344 343 342 343 346 348 347 346 345 344 344 345 346 345 345 345 344 346 348
195 194 199 200 196 190 199 209 201 194 196 195 206 220 230 249 259 263 263 264 268 273 279 281 283 285 287 291 294 296 299 302 304 304 301 297 297 299 300 300 300 304 308 311 316 320 322 324 326 326 330 329 321 322 332 337 337 338 339 339 341 343 344 344 344 344 345 345 344 344 343 342 344 346 347 347 346 345 345 345 346 347 347 347 347 347 349 350
198 195 197 199 201 199 201 206 203 198 198 198 210 216 226 249 257 264 266 267 272 278 281 282 284 287 290 293 295 298 302 304 304 301 298 298 299 298 295 295 300 306 311 316 321 324 326 328 329 330 329 323 323 330 337 338 339 339 340 339 341 344 345 345 346 345 346 346 345 345 344 343 345 347 347 347 346 346 346 347 347 347 348 348 348 350 351 352
202 199 199 199 203 207 209 210 208 202 197 202 216 216 218 234 248 262 271 274 278 280 280 282 285 289 292 295 298 302 304 303 301 299 299 298 295 293 292 296 302 308 313 318 322 324 325 325 327 328 325 326 333 338 337 336 336 337 338 339 340 343 345 345 346 345 345 345 345 344 344 346 347 347 347 346 346 347 347 347 347 348 348 349 350 352 353 354
203 201 201 203 205 208 212 214 214 204 194 202 217 216 221 235 251 267 274 277 280 280 281 283 288 292 296 299 301 303 303 301 300 299 297 292 289 290 294 299 304 308 314 321 323 323 324 325 327 328 328 332 336 334 332 332 333 335 337 338 340 341 343 344 345 344 344 346 346 345 347 348 349 347 346 346 346 347 347 347 348 348 349 350 351 353 354 356
202 202 202 203 205 207 212 215 212 201 194 205 216 219 233 247 260 268 270 276 281 285 286 288 293 296 299 300 301 301 301 300 300 297 291 287 287 291 294 297 302 309 315 319 321 322 324 326 327 328 331 332 331 330 332 333 334 336 337 340 340 340 342 343 343 344 345 346 347 348 350 350 349 348 346 346 346 347 348 348 348 348 349 350 352 354 355 356
203 203 202 204 208 215 224 223 207 197 199 211 219 225 243 250 256 260 267 278 284 286 289 293 297 297 298 299 300 300 300 301 299 293 286 285 289 294 297 298 303 309 312 316 320 322 325 326 327 328 329 329 330 332 332 333 335 336 338 340 340 339 341 341 342 344 344 346 348 349 350 349 348 348 347 346 347 347 348 349 349 348 349 350 352 354 356 356
203 203 204 208 214 222 231 230 216 204 208 215 222 233 243 244 247 255 269 279 279 284 291 295 296 297 298 298 297 298 299 300 295 287 283 286 292 297 297 298 302 307 311 317 321 323 325 326 327 327 326 328 330 331 332 335 336 337 339 339 339 340 340 340 341 343 345 346 349 349 348 348 348 348 347 347 347 348 349 349 349 349 350 351 353 354 355 356
197 196 204 213 215 218 224 228 225 216 214 215 221 233 237 239 245 256 270 275 276 285 292 294 295 296 296 296 295 297 299 296 289 285 286 291 297 299 298 298 302 306 310 314 317 320 323 324 324 323 325 328 330 331 333 336 338 340 340 339 339 339 339 340 341 343 345 347 348 347 346 346 348 348 348 348 347 348 348 349 349 349 351 352 353 353 354 356
193 188 192 204 211 214 220 225 222 213 211 210 215 228 234 241 251 261 268 271 278 287 291 292 295 295 294 294 295 297 296 290 286 286 289 295 299 300 302 303 306 308 311 314 317 320 322 322 321 321 325 329 330 332 334 337 339 340 339 339 339 339 340 341 341 343 346 346 346 346 345 345 347 347 348 348 348 348 348 348 349 350 351 352 352 353 354 357
195 192 189 194 203 211 216 216 211 205 206 208 215 228 238 248 256 262 265 271 281 288 289 291 293 293 292 292 292 294 291 286 285 287 290 295 299 303 306 309 311 312 314 317 319 321 321 320 319 321 325 328 329 332 335 337 339 339 339 339 339 340 341 341 342 343 345 346 344 344 344 344 345 346 348 349 349 348 347 348 349 350 351 351 352 353 354 357
197 199 196 197 203 211 211 204 201 205 210 216 224 234 243 250 255 260 266 276 284 287 287 290 291 290 288 288 289 290 286 284 285 288 291 296 300 305 309 311 311 313 315 317 319 319 319 319 320 323 326 328 330 333 335 337 337 337 338 338 339 340 341 340 341 342 344 345 343 343 343 343 344 346 348 349 349 348 347 348 349 350 351 351 352 353 355 356
201 203 202 204 209 213 211 204 206 214 218 223 230 238 245 250 256 263 271 279 284 284 287 289 288 285 283 285 286 285 284 285 287 290 293 298 303 308 310 311 311 313 314 316 317 318 318 319 322 325 326 329 331 333 335 336 335 335 336 337 338 339 338 338 339 340 342 344 342 341 342 343 344 346 348 349 350 349 347 347 349 349 350 351 352 354 355 355
203 206 207 210 214 216 215 215 218 221 221 224 231 241 247 252 259 265 273 279 281 283 286 287 284 280 280 282 282 283 283 285 288 292 296 301 306 309 311 312 312 313 314 315 316 316 318 322 325 326 328 330 332 332 334 334 334 334 334 335 337 336 336 337 337 338 339 341 341 340 341 343 344 345 347 348 349 349 347 347 349 349 350 351 352 353 354 354
204 207 211 214 216 216 217 219 219 215 217 224 235 243 246 251 258 266 274 278 278 281 284 282 278 277 277 278 280 281 282 284 289 293 298 303 307 311 312 313 313 313 313 313 314 316 320 324 326 328 329 331 331 331 332 333 333 333 333 334 334 334 335 336 336 336 336 337 340 340 340 342 344 345 346 347 348 349 348 348 349 349 349 351 352 352 352 352
206 208 213 214 214 214 213 212 209 209 217 229 237 240 244 251 259 268 274 275 277 280 280 276 273 274 275 277 279 280 281 285 289 295 300 305 308 311 312 312 312 312 312 314 317 321 324 326 327 328 329 330 330 330 331 331 331 331 332 332 332 332 334 334 335 334 333 334 338 340 340 342 344 344 345 346 347 348 349 349 348 348 349 350 351 350 351 351
208 210 212 211 210 210 208 205 205 210 222 231 235 239 245 254 262 269 272 273 276 277 274 271 271 273 275 277 278 279 281 286 290 295 300 304 306 309 310 311 312 313 315 319 322 324 325 326 328 328 328 328 328 329 330 330 330 330 330 330 330 331 332 333 334 333 333 333 337 340 341 341 344 344 344 345 346 347 350 349 348 348 349 349 349 349 349 351
208 210 210 208 208 206 204 205 208 215 224 230 235 240 249 257 264 269 270 272 273 271 269 269 271 272 274 276 278 280 283 287 291 295 298 301 305 308 311 313 314 317 318 321 323 324 325 326 327 327 326 327 327 328 328 328 329 329 329 330 330 329 330 331 333 333 333 333 336 340 341 341 343 343 344 344 344 346 349 349 347 347 348 349 348 348 349 351
204 206 206 206 204 202 202 206 211 218 226 231 237 243 251 259 266 268 269 270 269 267 267 268 269 272 274 276 279 282 285 289 292 294 297 301 305 309 311 313 314 316 317 319 320 322 324 325 325 324 324 325 326 326 326 327 329 329 329 329 328 328 329 331 332 334 335 334 335 339 341 341 342 343 343 343 344 345 347 348 347 347 348 348 347 347 349 350
200 203 202 200 198 198 203 209 215 222 228 233 240 247 254 261 266 267 267 268 266 265 267 268 270 272 274 277 280 284 287 290 292 294 298 301 306 309 311 312 313 315 316 318 319 321 322 322 322 323 323 324 324 325 326 327 328 329 329 329 329 330 331 331 332 334 336 335 334 337 340 340 341 342 342 342 343 343 345 347 347 346 347 347 347 347 349 350
197 198 196 194 195 199 208 215 219 224 230 237 244 250 256 261 264 265 266 265 264 264 267 269 271 273 275 279 282 286 289 291 293 295 298 302 306 309 311 313 314 315 316 318 319 320 321 321 322 322 323 324 324 325 326 327 328 328 329 329 330 330 331 331 332 334 335 335 333 335 339 340 341 342 342 342 342 342 344 346 346 346 346 346 347 347 349 350
186 188 190 193 199 206 212 217 223 229 235 242 248 253 257 260 262 264 264 263 263 265 268 270 272 274 277 281 284 287 290 292 293 296 299 303 306 309 312 313 314 315 316 317 318 319 320 320 321 322 322 323 324 325 326 326 327 328 329 329 330 330 330 330 331 332 333 334 333 334 338 340 339 340 341 341 341 341 343 345 346 346 346 346 346 347 349 349
179 185 192 198 205 211 216 222 228 234 240 245 250 254 258 260 262 262 260 261 263 266 269 271 273 276 279 282 285 288 290 292 294 297 300 303 306 309 311 312 313 313 314 315 316 317 318 319 320 321 322 323 324 324 325 326 327 327 328 328 329 330 330 329 329 330 331 333 333 332 336 339 338 339 340 340 341 341 342 344 345 345 345 346 346 347 348 349
180 188 196 203 210 218 224 229 233 238 243 248 252 255 259 259 259 258 258 260 264 267 269 271 274 278 281 283 286 288 290 292 295 297 300 303 306 308 310 311 311 312 312 313 315 316 317 318 319 320 321 321 322 323 324 325 326 326 327 328 329 329 330 329 328 329 330 333 333 332 334 338 338 338 339 340 341 341 341 343 344 344 344 345 346 347 348 348
184 193 201 210 218 224 227 230 234 240 246 250 253 256 258 258 256 256 257 261 265 267 269 271 275 279 281 284 285 287 290 292 295 297 300 302 304 306 308 309 310 311 312 313 314 315 316 317 318 318 319 320 321 322 323 324 325 325 326 327 327 328 329 329 328 328 330 332 333 332 333 336 337 337 339 340 341 341 340 341 343 343 344 345 346 347 347 347
189 199 208 215 221 224 227 231 237 244 249 253 255 258 258 257 255 256 258 262 265 267 269 273 277 279 281 283 285 287 289 292 294 297 299 300 302 304 306 308 309 310 311 312 313 314 315 316 317 318 319 319 320 322 322 323 324 325 325 325 326 327 328 328 327 327 328 330 332 332 332 335 336 337 338 339 340 340 339 340 342 343 343 345 346 346 347 346
198 207 213 218 222 225 230 236 242 249 254 257 259 259 258 256 255 257 261 264 267 269 271 275 278 280 282 283 285 287 289 291 294 296 298 299 301 302 304 306 307 309 310 312 313 314 315 316 317 318 319 319 320 321 322 323 324 324 324 324 324 325 326 326 326 326 326 328 330 331 331 332 334 335 336 338 338 339 338 340 342 343 343 345 345 345 345 345
205 212 216 221 225 229 236 242 248 254 257 260 261 259 257 256 256 259 263 266 268 270 273 276 279 281 283 284 285 287 289 292 294 296 298 299 301 302 304 305 307 308 310 311 312 313 314 316 316 318 319 319 320 321 323 323 323 323 323 323 323 324 324 325 325 325 325 326 328 330 330 330 332 334 335 336 337 338 338 339 342 343 344 344 344 344 344 344
210 214 218 223 229 236 242 248 253 257 258 259 260 258 256 256 258 262 265 267 270 272 274 278 280 282 284 285 286 288 290 292 295 297 298 300 301 303 304 306 307 309 310 312 313 313 314 315 316 316 318 319 320 321 322 322 322 322 322 322 322 322 323 323 324 324 324 324 325 329 329 329 330 333 334 335 337 337 338 339 342 343 343 344 343 343 343 343
212 217 222 229 236 242 248 253 256 257 258 259 259 257 257 257 260 264 266 269 271 273 276 279 281 283 285 286 288 289 292 294 296 298 300 301 303 304 306 307 309 310 311 312 313 314 314 315 316 316 318 319 319 319 320 320 321 321 321 321 321 321 322 322 323 323 323 323 323 327 329 329 330 332 333 335 337 337 337 339 341 342 343 343 343 342 342 342
215 221 227 235 242 248 253 256 257 257 258 259 259 258 258 260 262 265 268 271 273 276 278 280 282 284 286 287 289 291 294 296 298 300 302 303 304 306 307 309 310 311 312 313 314 315 315 317 318 318 319 320 320 320 321 321 321 322 321 321 321 322 322 322 323 323 323 324 324 325 328 329 329 330 332 334 336 336 337 339 340 341 342 342 342 341 341 342
220 227 234 241 248 253 256 257 258 258 259 259 259 258 259 262 265 268 271 273 276 278 280 282 284 286 287 289 290 293 295 298 300 302 303 304 306 307 308 309 310 311 312 313 314 315 317 318 319 319 320 321 321 321 322 322 322 322 322 322 323 323 323 323 324 324 325 326 325 324 326 329 329 329 330 333 334 335 337 338 339 340 341 341 341 340 341 342
226 234 240 247 252 256 258 259 259 259 260 260 260 260 262 265 267 270 273 276 278 280 282 284 286 287 289 290 292 294 297 299 301 303 304 305 306 307 308 309 310 311 312 313 314 316 317 318 319 319 319 320 321 321 322 322 322 323 323 324 325 325 324 324 325 326 326 326 326 325 326 329 330 329 330 332 334 335 336 338 339 340 340 340 339 340 341 343
234 241 247 251 255 257 259 260 261 261 261 260 261 262 264 267 270 273 276 278 280 282 283 285 287 289 290 292 293 296 298 300 302 303 304 305 306 307 308 309 310 311 313 314 315 316 317 318 319 319 319 320 321 321 321 322 323 324 325 326 326 326 326 326 327 327 327 326 327 329 329 329 330 330 331 332 333 334 337 338 339 339 339 339 339 340 342 345
242 247 252 255 257 259 261 263 263 263 262 262 263 264 267 270 273 275 278 280 282 283 285 286 288 290 292 293 295 297 299 301 302 304 305 306 307 308 309 310 311 312 313 314 315 316 317 318 319 320 319 319 320 321 321 323 324 325 326 326 327 328 328 328 328 329 329 329 330 331 331 331 331 332 332 332 333 335 337 339 338 339 338 338 339 341 343 345
248 252 256 258 260 262 264 264 264 264 263 263 264 266 269 272 274 277 279 281 282 285 286 288 290 291 293 295 297 299 300 302 303 305 306 307 308 309 309 310 311 312 313 314 315 316 317 318 318 319 319 319 320 322 322 323 323 324 325 327 329 330 330 329 330 331 332 333 333 333 334 333 332 332 333 333 334 335 337 339 338 338 338 338 340 342 344 345
253 256 259 261 263 264 265 266 265 265 265 265 266 268 271 273 275 277 280 282 284 286 288 290 291 293 295 296 298 300 301 303 304 305 306 307 308 309 310 310 311 312 313 314 315 316 317 317 318 319 319 319 320 322 321 321 322 323 325 327 329 330 331 330 331 334 334 335 335 335 335 334 333 334 334 334 335 336 337 338 338 338 338 339 341 343 344 344
257 260 262 264 265 267 268 267 267 268 267 268 269 271 273 275 277 279 281 283 285 287 289 291 293 295 296 298 299 300 301 303 305 306 306 307 308 309 310 310 311 312 313 314 315 316 316 317 317 319 320 320 320 321 320 320 321 323 324 326 327 329 331 331 331 333 335 336 336 336 336 335 335 335 337 337 337 336 337 338 338 338 339 340 341 343 343 343
Height
10724 10726 10729 10731 10734 10737 10740 10743 10745 10747 10749 10751 10755 10759 10762 10765 10767 10768 10769 10769 10770 10771 10772 10772 10773 10773 10773 10774 10775 10775 10775 10774 10774 10773 10773 10773 10772 10771 10771 10769 10768 10767 10765 10763 10761 10759 10756 10754 10751 10748 10745 10742 10740 10737 10733 10729 10725 10721 10716 10713 10711 10709 10704 10699 10695 10692 10688 10684 10682 10675 10669 10664 10661 10658 10654 10651 10646 10640 10635 10628 10621 10614 10606 10598 10590 10582 10575 10568
10726 10728 10730 10732 10735 10738 10740 10742 10744 10746 10749 10752 10757 10760 10762 10764 10765 10766 10767 10768 10769 10770 10770 10771 10771 10771 10772 10772 10773 10773 10773 10772 10771 10771 10771 10770 10769 10769 10768 10766 10765 10763 10761 10759 10757 10755 10752 10749 10746 10743 10740 10737 10734 10732 10729 10725 10720 10716 10713 10709 10707 10705 10701 10696 10692 10689 10685 10680 10678 10672 10664 10659 10654 10650 10645 10640 10636 10631 10626 10619 10613 10605 10598 10590 10581 10572 10564 10557
10726 10728 10731 10733 10735 10738 10740 10742 10745 10748 10751 10754 10757 10759 10761 10763 10764 10765 10766 10767 10767 10768 10769 10769 10769 10770 10770 10771 10771 10771 10770 10770 10769 10769 10768 10767 10767 10766 10765 10763 10761 10760 10758 10755 10753 10751 10748 10745 10742 10739 10736 10733 10730 10727 10724 10720 10717 10713 10709 10707 10704 10702 10699 10694 10689 10686 10681 10675 10672 10667 10660 10653 10646 10640 10635 10631 10626 10621 10615 10608 10602 10595 10588 10580 10572 10562 10553 10545
10726 10728 10731 10733 10736 10739 10741 10743 10746 10749 10752 10755 10757 10759 10761 10762 10763 10764 10765 10766 10766 10767 10767 10767 10768 10768 10769 10769 10769 10769 10768 10768 10767 10766 10765 10765 10764 10763 10762 10760 10758 10756 10753 10751 10749 10747 10744 10742 10738 10735 10731 10729 10726 10722 10720 10716 10713 10709 10706 10703 10701 10698 10695 10691 10685 10680 10675 10669 10665 10661 10654 10646 10639 10633 10628 10623 10618 10611 10605 10598 10591 10584 10577 10569 10561 10552 10542 10533
10727 10729 10731 10733 10736 10739 10741 10743 10746 10749 10752 10754 10757 10758 10759 10761 10762 10763 10764 10764 10764 10765 10765 10766 10766 10767 10767 10767 10767 10766 10766 10765 10764 10764 10763 10762 10762 10760 10758 10756 10754 10751 10749 10747 10745 10743 10741 10738 10735 10732 10728 10725 10722 10719 10716 10713 10710 10706 10702 10699 10697 10694 10691 10687 10681 10675 10670 10663 10658 10653 10646 10640 10635 10629 10623 10616 10610 10602 10596 10589 10582 10574 10565 10557 10549 10541 10532 10523
10727 10730 10731 10733 10736 10738 10740 10743 10746 10749 10752 10754 10756 10757 10758 10760 10761 10762 10762 10763 10763 10763 10764 10764 10765 10765 10765 10765 10765 10764 10763 10763 10762 10761 10761 10760 10758 10756 10754 10752 10750 10748 10745 10743 10741 10739 10737 10734 10731 10728 10725 10722 10720 10717 10714 10711 10708 10704 10699 10694 10691 10689 10686 10683 10677 10670 10666 10658 10650 10647 10641 10636 10632 10625 10618 10611 10604 10596 10588 10580 10572 10563 10555 10547 10539 10531 10523 10515
10728 10730 10731 10734 10736 10738 10741 10744 10747 10749 10751 10753 10755 10756 10757 10758 10759 10760 10760 10761 10761 10761 10762 10763 10763 10763 10763 10763 10763 10762 10761 10760 10760 10759 10758 10757 10755 10753 10750 10748 10746 10744 10742 10740 10738 10735 10733 10731 10728 10726 10723 10719 10717 10714 10711 10708 10705 10701 10697 10692 10687 10683 10681 10679 10674 10667 10661 10653 10645 10643 10638 10632 10627 10620 10613 10606 10598 10590 10581 10572 10563 10554 10546 10538 10530 10521 10513 10506
10728 10729 10731 10734 10736 10738 10741 10744 10746 10748 10751 10752 10754 10755 10756 10757 10758 10758 10759 10759 10759 10760 10760 10761 10761 10761 10761 10761 10760 10760 10759 10758 10757 10757 10755 10753 10751 10749 10747 10745 10743 10741 10739 10737 10734 10732 10730 10728 10726 10723 10720 10717 10714 10711 10708 10705 10702 10699 10694 10689 10683 10679 10675 10672 10669 10661 10655 10650 10644 10640 10634 10627 10622 10616 10608 10600 10592 10584 10575 10565 10557 10548 10540 10531 10523 10514 10506 10498
10727 10729 10731 10734 10736 10738 10741 10744 10746 10748 10750 10752 10753 10754 10755 10756 10756 10757 10757 10757 10758 10758 10759 10759 10759 10759 10759 10759 10758 10758 10757 10756 10755 10754 10752 10750 10748 10746 10744 10743 10741 10738 10736 10734 10731 10729 10727 10725 10723 10721 10718 10715 10712 10709 10706 10703 10700 10697 10692 10687 10680 10674 10669 10664 10660 10655 10650 10647 10642 10637 10631 10624 10618 10611 10603 10596 10588 10579 10570 10561 10553 10545 10536 10528 10519 10509 10499 10489
10727 10729 10731 10733 10735 10737 10740 10743 10745 10747 10749 10750 10752 10753 10754 10754 10755 10755 10755 10756 10756 10757 10757 10757 10757 10757 10757 10756 10756 10755 10755 10754 10753 10751 10749 10747 10746 10744 10742 10740 10738 10735 10733 10731 10728 10726 10724 10722 10720 10717 10715 10712 10709 10706 10703 10699 10696 10694 10690 10684 10677 10670 10663 10658 10655 10652 10647 10643 10638 10633 10628 10621 10614 10607 10600 10591 10583 10574 10567 10559 10551 10543 10535 10527 10516 10504 10492 10479
10726 10728 10730 10732 10734 10737 10739 10742 10745 10747 10748 10749 10751 10752 10752 10753 10753 10753 10754 10754 10755 10756 10756 10755 10755 10755 10755 10754 10754 10753 10752 10751 10750 10749 10747 10745 10743 10741 10739 10737 10735 10733 10730 10728 10726 10724 10721 10719 10717 10714 10712 10709 10705 10702 10699 10696 10692 10689 10685 10681 10675 10668 10662 10656 10652 10650 10645 10638 10633 10628 10622 10616 10609 10602 10594 10585 10578 10571 10564 10557 10549 10540 10532 10522 10510 10497 10484 10471
10725 10727 10730 10731 10733 10736 10739 10741 10744 10746 10747 10748 10749 10750 10750 10751 10751 10752 10752 10753 10754 10754 10754 10754 10753 10753 10752 10752 10751 10750 10750 10749 10747 10746 10744 10742 10740 10738 10736 10734 10732 10730 10728 10726 10723 10721 10719 10717 10714 10712 10709 10706 10702 10699 10696 10693 10689 10684 10679 10675 10671 10666 10662 10656 10651 10646 10642 10635 10629 10623 10617 10609 10603 10595 10587 10580 10573 10567 10561 10553 10544 10535 10525 10514 10503 10491 10479 10467
10724 10727 10729 10731 10733 10736 10738 10741 10743 10745 10746 10747 10748 10748 10749 10749 10750 10750 10751 10751 10752 10752 10752 10752 10751 10751 10750 10750 10749 10748 10747 10746 10745 10744 10742 10739 10737 10735 10733 10731 10730 10728 10725 10723 10721 10719 10717 10714 10712 10709 10706 10703 10699 10696 10693 10689 10685 10680 10675 10670 10665 10661 10658 10654 10648 10641 10636 10631 10624 10617 10611 10604 10596 10589 10581 10575 10569 10563 10556 10547 10538 10528 10518 10507 10496 10485 10474 10462
10724 10726 10728 10730 10732 10735 10738 10740 10742 10743 10745 10746 10746 10747 10747 10748 10748 10749 10749 10750 10750 10750 10750 10750 10749 10749 10748 10748 10747 10746 10745 10744 10743 10741 10739 10737 10734 10732 10731 10729 10727 10725 10723 10721 10719 10717 10714 10712 10709 10706 10703 10699 10696 10693 10688 10684 10680 10675 10672 10668 10663 10657 10653 10649 10643 10636 10630 10624 10618 10611 10605 10598 10591 10584 10578 10572 10565 10558 10550 10541 10532 10522 10511 10501 10490 10479 10468 10455
10723 10725 10727 10729 10731 10734 10737 10739 10740 10742 10744 10745 10745 10745 10745 10746 10746 10747 10747 10748 10748 10748 10748 10748 10747 10747 10746 10746 10745 10744 10743 10742 10740 10738 10736 10734 10733 10731 10729 10727 10726 10724 10722 10719 10717 10714 10712 10710 10707 10704 10700 10697 10694 10689 10683 10678 10675 10672 10669 10666 10661 10654 10648 10643 10637 10632 10626 10619 10613 10607 10601 10595 10587 10580 10575 10568 10561 10553 10545 10535 10526 10516 10506 10495 10485 10473 10461 10448
10722 10724 10726 10728 10730 10733 10735 10737 10739 10741 10742 10744 10744 10743 10744 10744 10744 10745 10746 10746 10746 10746 10746 10746 10746 10745 10744 10743 10743 10742 10741 10739 10738 10736 10734 10732 10730 10729 10727 10725 10724 10722 10720 10717 10715 10712 10709 10706 10703 10700 10697 10695 10692 10686 10680 10675 10671 10669 10666 10663 10659 10652 10644 10639 10632 10627 10623 10616 10609 10603 10597 10591 10583 10576 10570 10564 10556 10548 10539 10530 10520 10511 10501 10490 10479 10466 10453 10442
10720 10722 10724 10727 10729 10731 10733 10736 10738 10740 10741 10742 10742 10741 10742 10743 10743 10744 10744 10745 10745 10745 10745 10744 10744 10743 10742 10741 10740 10739 10738 10737 10735 10733 10731 10730 10728 10727 10725 10724 10722 10720 10717 10715 10712 10710 10706 10703 10700 10697 10693 10690 10685 10681 10678 10674 10670 10666 10662 10657 10654 10650 10644 10638 10631 10624 10619 10614 10606 10600 10593 10585 10578 10571 10565 10559 10551 10543 10534 10525 10516 10507 10497 10485 10472 10460 10448 10437
10719 10721 10723 10725 10728 10730 10732 10734 10737 10738 10740 10740 10740 10740 10741 10741 10742 10742 10743 10743 10743 10743 10743 10742 10742 10741 10740 10739 10738 10737 10736 10734 10733 10731 10729 10728 10726 10725 10724 10722 10720 10718 10715 10713 10710 10708 10705 10701 10698 10695 10691 10686 10681 10678 10676 10673 10670 10665 10660 10654 10649 10647 10642 10636 10631 10623 10616 10610 10603 10596 10588 10580 10574 10567 10560 10554 10546 10538 10529 10520 10511 10501 10492 10481 10468 10456 10444 10431
10718 10720 10722 10724 10727 10729 10731 10733 10735 10737 10738 10738 10738 10738 10739 10740 10740 10741 10741 10741 10742 10741 10741 10740 10740 10739 10738 10737 10735 10734 10733 10732 10731 10729 10727 10726 10725 10723 10722 10720 10718 10716 10713 10711 10708 10705 10702 10698 10695 10692 10688 10685 10682 10679 10676 10672 10667 10663 10658 10653 10647 10643 10639 10633 10628 10621 10613 10606 10600 10592 10584 10576 10570 10563 10556 10549 10541 10533 10524 10515 10506 10496 10486 10476 10465 10453 10439 10426
10716 10718 10721 10723 10726 10729 10731 10733 10734 10736 10736 10737 10737 10737 10738 10738 10739 10740 10740 10740 10740 10740 10739 10739 10738 10737 10736 10734 10733 10732 10731 10730 10728 10727 10726 10725 10723 10722 10720 10718 10716 10714 10711 10709 10706 10702 10699 10695 10692 10689 10686 10684 10681 10678 10674 10669 10664 10659 10654 10650 10644 10638 10634 10630 10624 10617 10609 10602 10594 10587 10580 10573 10567 10560 10552 10544 10537 10528 10519 10510 10501 10492 10482 10471 10460 10448 10434 10422
10714 10716 10719 10722 10725 10727 10730 10731 10733 10734 10735 10736 10736 10736 10737 10738 10738 10738 10738 10739 10738 10738 10738 10737 10736 10735 10733 10732 10731 10730 10729 10728 10727 10726 10724 10723 10722 10720 10718 10716 10714 10712 10709 10707 10703 10700 10697 10693 10690 10687 10683 10681 10678 10674 10671 10666 10661 10655 10650 10646 10641 10634 10628 10625 10621 10614 10606 10597 10589 10581 10576 10571 10563 10557 10548 10540 10532 10522 10513 10505 10497 10488 10477 10466 10454 10442 10432 10422
10713 10715 10719 10721 10724 10727 10729 10730 10732 10734 10734 10734 10735 10735 10736 10737 10737 10737 10737 10737 10737 10736 10736 10735 10734 10733 10731 10730 10729 10728 10727 10726 10725 10724 10723 10722 10720 10718 10716 10715 10712 10710 10707 10704 10701 10698 10694 10691 10687 10684 10681 10677 10674 10670 10667 10663 10658 10652 10646 10641 10637 10632 10625 10619 10614 10610 10603 10595 10586 10578 10573 10568 10560 10552 10544 10535 10526 10517 10508 10500 10492 10482 10471 10460 10449 10440 10431 10420
10712 10715 10719 10722 10724 10727 10728 10729 10731 10733 10733 10733 10734 10735 10735 10735 10735 10736 10736 10736 10735 10735 10734 10733 10732 10731 10729 10728 10727 10726 10725 10724 10724 10723 10721 10720 10718 10716 10715 10713 10711 10708 10706 10703 10700 10696 10693 10689 10686 10682 10678 10674 10670 10666 10661 10658 10653 10648 10643 10638 10633 10629 10625 10618 10610 10605 10599 10591 10585 10578 10569 10563 10556 10548 10539 10530 10521 10512 10505 10497 10488 10477 10466 10456 10446 10437 10428 10417
10711 10714 10718 10721 10723 10725 10726 10728 10730 10731 10732 10732 10733 10733 10733 10734 10734 10735 10735 10734 10734 10733 10733 10732 10730 10729 10728 10726 10725 10724 10724 10723 10722 10721 10719 10718 10716 10714 10713 10710 10708 10705 10703 10701 10698 10694 10691 10687 10684 10680 10675 10671 10666 10662 10657 10652 10648 10644 10640 10635 10630 10625 10620 10615 10609 10601 10595 10588 10582 10577 10568 10560 10553 10545 10536 10526 10517 10509 10501 10493 10483 10472 10463 10454 10444 10434 10422 10410
10710 10713 10716 10719 10721 10722 10724 10726 10728 10730 10730 10730 10731 10731 10732 10733 10733 10733 10733 10733 10733 10732 10731 10730 10729 10727 10726 10725 10724 10723 10722 10721 10720 10719 10718 10716 10714 10712 10710 10708 10705 10702 10700 10697 10695 10692 10689 10685 10682 10678 10673 10669 10664 10659 10654 10648 10644 10640 10636 10631 10626 10620 10614 10609 10604 10598 10592 10585 10578 10574 10568 10559 10550 10542 10532 10523 10514 10505 10497 10487 10478 10468 10459 10450 10441 10429 10416 10402
10709 10711 10714 10717 10718 10720 10722 10725 10727 10728 10729 10729 10730 10730 10731 10732 10732 10732 10732 10732 10731 10730 10729 10728 10727 10726 10724 10723 10722 10722 10721 10720 10719 10717 10716 10714 10712 10710 10708 10705 10703 10700 10697 10695 10692 10689 10686 10683 10679 10675 10671 10666 10661 10656 10652 10646 10641 10637 10633 10628 10621 10615 10609 10603 10598 10593 10588 10582 10574 10568 10563 10555 10547 10538 10528 10520 10512 10502 10493 10484 10474 10464 10456 10447 10437 10424 10410 10399
10707 10710 10713 10715 10716 10718 10721 10724 10726 10727 10728 10728 10729 10729 10730 10730 10731 10731 10731 10730 10729 10728 10727 10726 10725 10724 10723 10722 10721 10721 10720 10718 10717 10715 10714 10712 10710 10708 10706 10703 10701 10698 10696 10693 10690 10687 10684 10681 10676 10672 10668 10664 10659 10654 10650 10645 10639 10633 10628 10624 10618 10611 10605 10599 10592 10587 10583 10577 10570 10562 10556 10549 10540 10533 10524 10515 10508 10499 10489 10481 10471 10461 10452 10442 10429 10417 10407 10398
10705 10708 10711 10713 10715 10717 10720 10722 10724 10726 10727 10727 10728 10728 10729 10729 10729 10729 10729 10728 10727 10726 10726 10725 10724 10722 10721 10720 10720 10719 10718 10717 10715 10713 10712 10710 10707 10705 10703 10701 10699 10696 10693 10690 10687 10684 10681 10677 10673 10669 10665 10661 10657 10652 10648 10643 10637 10631 10625 10620 10615 10609 10603 10596 10587 10580 10576 10574 10568 10558 10551 10544 10534 10526 10520 10512 10504 10495 10486 10476 10466 10456 10446 10434 10423 10413 10405 10397
10704 10707 10709 10711 10714 10716 10719 10721 10723 10724 10725 10726 10726 10727 10727 10728 10728 10728 10727 10726 10725 10725 10724 10723 10722 10721 10720 10719 10718 10718 10716 10715 10714 10712 10709 10707 10705 10703 10700 10698 10696 10693 10690 10688 10685 10681 10677 10673 10670 10666 10662 10657 10654 10650 10645 10641 10635 10630 10624 10617 10612 10607 10600 10593 10585 10577 10571 10569 10565 10555 10545 10540 10532 10522 10514 10507 10498 10490 10481 10470 10459 10450 10440 10430 10420 10412 10404 10396
10703 10705 10707 10710 10713 10716 10718 10720 10721 10723 10724 10724 10725 10726 10726 10726 10726 10726 10725 10724 10723 10723 10722 10721 10720 10719 10718 10718 10717 10716 10715 10713 10712 10710 10707 10705 10703 10700 10698 10696 10693 10690 10687 10684 10680 10676 10672 10669 10666 10662 10658 10654 10650 10646 10642 10637 10633 10628 10623 10616 10610 10604 10598 10591 10583 10575 10567 10563 10561 10552 10538 10530 10525 10517 10509 10501 10492 10484 10474 10464 10455 10446 10436 10427 10419 10411 10404 10395
10701 10704 10706 10709 10712 10715 10717 10719 10720 10721 10722 10723 10724 10724 10725 10725 10725 10724 10723 10722 10722 10721 10720 10719 10719 10718 10717 10716 10715 10714 10713 10711 10710 10708 10705 10703 10701 10698 10696 10693 10691 10687 10683 10679 10675 10672 10669 10665 10662 10658 10654 10650 10646 10642 10638 10633 10629 10624 10619 10614 10608 10601 10596 10590 10583 10574 10564 10555 10553 10547 10535 10524 10517 10511 10503 10496 10488 10480 10470 10461 10453 10445 10435 10426 10418 10410 10401 10391
10701 10703 10706 10709 10712 10714 10716 10718 10719 10720 10721 10722 10723 10723 10723 10723 10723 10722 10721 10721 10720 10719 10718 10718 10717 10716 10715 10714 10713 10712 10711 10709 10707 10705 10703 10701 10699 10696 10693 10690 10688 10684 10681 10677 10673 10669 10665 10662 10658 10654 10650 10647 10642 10638 10634 10630 10625 10620 10614 10610 10605 10600 10595 10589 10583 10574 10562 10550 10545 10542 10533 10522 10514 10506 10498 10491 10483 10475 10467 10460 10452 10443 10434 10426 10418 10409 10398 10387
10700 10703 10706 10709 10711 10713 10715 10717 10718 10719 10720 10721 10721 10721 10721 10721 10721 10720 10720 10719 10718 10717 10716 10716 10715 10714 10713 10712 10711 10710 10708 10707 10705 10703 10701 10699 10696 10694 10691 10688 10685 10682 10679 10675 10672 10668 10663 10659 10655 10651 10647 10643 10639 10635 10631 10627 10621 10616 10610 10605 10600 10595 10589 10584 10580 10574 10563 10549 10540 10537 10531 10521 10513 10504 10495 10488 10479 10472 10465 10457 10449 10440 10432 10425 10416 10406 10394 10382
10700 10703 10706 10708 10710 10712 10714 10716 10717 10718 10719 10720 10720 10720 10720 10720 10719 10719 10718 10717 10716 10715 10715 10714 10713 10712 10711 10710 10709 10707 10706 10704 10702 10700 10698 10696 10693 10691 10688 10686 10683 10680 10676 10673 10669 10665 10662 10657 10652 10648 10644 10639 10634 10629 10625 10621 10616 10611 10605 10599 10592 10586 10580 10574 10569 10566 10561 10549 10538 10535 10529 10518 10510 10502 10493 10485 10477 10469 10462 10454 10446 10438 10430 10421 10411 10401 10389 10378
10701 10704 10706 10708 10710 10712 10713 10715 10716 10717 10718 10718 10719 10719 10718 10718 10717 10717 10716 10715 10714 10714 10713 10712 10711 10710 10709 10708 10707 10705 10703 10702 10700 10698 10696 10693 10691 10688 10685 10682 10679 10676 10673 10670 10665 10661 10657 10654 10649 10644 10639 10634 10629 10623 10618 10614 10609 10605 10600 10593 10586 10580 10574 10568 10562 10557 10554 10547 10536 10532 10528 10516 10506 10499 10489 10482 10474 10465 10458 10451 10442 10435 10426 10416 10406 10396 10386 10375
10701 10704 10706 10708 10710 10711 10713 10714 10715 10716 10717 10717 10717 10717 10717 10716 10715 10715 10714 10713 10713 10712 10711 10711 10709 10708 10707 10706 10704 10702 10701 10699 10697 10695 10693 10690 10688 10685 10682 10679 10676 10673 10670 10666 10662 10658 10653 10649 10645 10639 10634 10629 10623 10617 10611 10607 10602 10597 10593 10589 10582 10575 10569 10564 10559 10554 10550 10544 10531 10524 10524 10517 10506 10498 10489 10480 10472 10462 10454 10446 10438 10430 10422 10412 10402 10392 10382 10372
10702 10704 10706 10708 10709 10711 10712 10714 10715 10715 10715 10715 10715 10715 10715 10714 10714 10713 10712 10712 10711 10710 10710 10709 10708 10706 10705 10703 10702 10700 10698 10696 10694 10692 10690 10687 10685 10682 10679 10676 10672 10669 10666 10662 10659 10655 10650 10645 10640 10635 10629 10624 10619 10613 10606 10600 10595 10589 10585 10581 10577 10571 10564 10557 10553 10550 10546 10543 10531 10517 10515 10513 10504 10495 10487 10477 10468 10458 10448 10441 10433 10426 10418 10408 10398 10388 10378 10369
10702 10704 10706 10708 10709 10711 10712 10713 10713 10714 10714 10714 10714 10713 10713 10712 10711 10711 10710 10710 10709 10709 10708 10707 10706 10704 10703 10701 10699 10698 10696 10694 10692 10689 10687 10684 10681 10679 10676 10673 10669 10666 10662 10659 10655 10651 10647 10642 10637 10632 10626 10621 10616 10609 10603 10596 10590 10584 10578 10573 10569 10565 10559 10550 10543 10540 10538 10536 10530 10517 10508 10505 10498 10490 10481 10471 10462 10453 10444 10436 10429 10421 10413 10403 10394 10383 10373 10365
10702 10704 10706 10708 10709 10710 10711 10711 10712 10712 10712 10712 10712 10711 10711 10710 10709 10709 10709 10708 10708 10707 10706 10705 10704 10702 10700 10699 10697 10695 10693 10691 10689 10687 10684 10681 10679 10675 10673 10670 10666 10662 10658 10655 10651 10647 10643 10638 10633 10629 10623 10617 10613 10607 10599 10593 10587 10580 10574 10568 10563 10559 10555 10546 10536 10529 10525 10523 10521 10513 10504 10499 10493 10484 10476 10466 10458 10449 10441 10433 10426 10416 10408 10398 10389 10379 10370 10362
10702 10704 10706 10707 10708 10709 10710 10710 10710 10710 10710 10710 10710 10709 10709 10708 10708 10707 10707 10706 10706 10705 10704 10703 10701 10700 10698 10696 10694 10692 10690 10688 10686 10684 10681 10678 10676 10673 10669 10666 10663 10659 10655 10650 10647 10643 10639 10634 10628 10624 10619 10612 10608 10603 10596 10590 10583 10576 10569 10563 10558 10553 10549 10543 10533 10522 10517 10513 10510 10503 10495 10491 10486 10477 10469 10462 10454 10447 10439 10431 10422 10412 10403 10393 10383 10375 10367 10359
10703 10704 10706 10707 10707 10708 10708 10709 10709 10709 10708 10708 10708 10707 10707 10706 10706 10705 10705 10704 10704 10703 10702 10701 10699 10697 10696 10694 10692 10690 10688 10685 10683 10681 10678 10675 10672 10669 10666 10663 10659 10655 10651 10646 10642 10638 10635 10630 10624 10619 10614 10607 10602 10599 10592 10585 10579 10571 10564 10557 10552 10546 10542 10538 10531 10520 10511 10506 10504 10497 10486 10482 10480 10474 10466 10459 10451 10444 10436 10427 10419 10409 10399 10389 10380 10372 10365 10357
10702 10703 10705 10706 10706 10707 10707 10707 10707 10707 10706 10706 10705 10705 10705 10704 10704 10703 10703 10702 10701 10701 10699 10698 10697 10695 10693 10691 10689 10687 10685 10682 10680 10677 10675 10672 10669 10665 10662 10658 10655 10651 10647 10642 10637 10633 10630 10626 10620 10615 10610 10601 10595 10592 10587 10580 10574 10567 10559 10552 10545 10540 10534 10530 10525 10516 10506 10499 10497 10494 10483 10474 10472 10467 10460 10453 10446 10439 10431 10422 10413 10404 10394 10385 10376 10369 10361 10353
10701 10702 10704 10704 10705 10705 10705 10705 10705 10705 10704 10704 10703 10703 10702 10702 10702 10701 10701 10700 10699 10698 10697 10695 10694 10692 10690 10688 10686 10684 10682 10679 10677 10674 10671 10668 10665 10661 10658 10654 10650 10646 10642 10637 10632 10628 10624 10621 10617 10613 10608 10599 10590 10586 10581 10575 10570 10564 10555 10547 10539 10533 10528 10523 10517 10511 10503 10493 10488 10489 10481 10469 10463 10460 10452 10446 10439 10431 10424 10416 10407 10399 10391 10382 10374 10366 10358 10349
10700 10701 10702 10703 10703 10703 10703 10703 10703 10702 10702 10702 10701 10701 10700 10700 10700 10699 10698 10697 10696 10695 10694 10692 10691 10689 10687 10685 10683 10681 10679 10676 10674 10670 10667 10664 10661 10657 10653 10650 10646 10642 10637 10633 10628 10622 10617 10614 10609 10606 10605 10600 10591 10586 10581 10573 10566 10559 10551 10543 10534 10527 10521 10517 10512 10507 10500 10491 10481 10481 10479 10466 10454 10450 10445 10439 10432 10424 10416 10410 10403 10396 10388 10380 10372 10363 10355 10346
10699 10700 10701 10701 10701 10701 10701 10701 10701 10700 10700 10699 10699 10699 10698 10698 10697 10696 10696 10695 10693 10692 10691 10689 10688 10686 10684 10682 10680 10678 10675 10673 10670 10666 10663 10660 10657 10653 10649 10645 10642 10637 10633 10628 10623 10617 10611 10606 10599 10593 10592 10590 10583 10578 10574 10568 10560 10553 10545 10537 10528 10519 10512 10508 10504 10499 10495 10488 10476 10470 10474 10468 10454 10444 10438 10432 10426 10421 10413 10406 10400 10393 10386 10378 10370 10361 10352 10343
10698 10699 10699 10699 10699 10699 10699 10699 10698 10698 10697 10697 10696 10696 10696 10695 10695 10694 10693 10692 10690 10689 10688 10686 10685 10683 10681 10678 10676 10674 10671 10668 10666 10662 10659 10656 10652 10649 10645 10641 10637 10633 10629 10624 10619 10614 10607 10601 10594 10584 10579 10577 10571 10563 10560 10556 10551 10545 10537 10529 10521 10512 10505 10499 10495 10490 10486 10482 10474 10463 10462 10465 10458 10446 10439 10432 10424 10418 10411 10404 10397 10390 10383 10375 10367 10358 10349 10339
10697 10697 10697 10697 10697 10697 10697 10696 10696 10695 10695 10695 10694 10694 10694 10693 10692 10691 10690 10689 10688 10686 10685 10683 10681 10679 10677 10675 10672 10670 10667 10664 10661 10658 10655 10651 10648 10644 10640 10636 10632 10628 10624 10619 10615 10611 10604 10598 10592 10582 10572 10570 10566 10558 10552 10547 10542 10537 10531 10523 10515 10506 10498 10491 10486 10482 10477 10474 10472 10463 10454 10454 10452 10443 10434 10429 10422 10415 10409 10402 10395 10387 10379 10372 10364 10355 10346 10336
10695 10695 10695 10695 10695 10695 10694 10694 10694 10693 10693 10693 10692 10692 10691 10690 10689 10688 10687 10686 10684 10683 10681 10680 10678 10675 10673 10671 10668 10666 10663 10660 10657 10654 10650 10646 10643 10639 10635 10631 10627 10622 10618 10614 10609 10605 10601 10595 10590 10581 10569 10563 10560 10554 10547 10541 10534 10528 10523 10517 10510 10501 10492 10485 10480 10476 10472 10466 10464 10461 10451 10444 10442 10437 10428 10421 10415 10411 10406 10398 10390 10383 10376 10368 10360 10351 10342 10332
10693 10693 10693 10693 10693 10692 10692 10692 10691 10691 10691 10690 10690 10689 10688 10687 10686 10685 10684 10683 10681 10679 10678 10676 10674 10672 10670 10667 10664 10662 10659 10656 10652 10649 10645 10641 10638 10634 10629 10625 10621 10617 10612 10609 10603 10599 10596 10591 10587 10581 10569 10559 10554 10548 10540 10535 10529 10522 10517 10511 10505 10497 10487 10480 10477 10473 10468 10462 10457 10455 10450 10441 10434 10429 10422 10415 10409 10404 10400 10394 10386 10379 10371 10363 10355 10346 10337 10327
10691 10691 10691 10691 10691 10690 10690 10689 10689 10689 10688 10688 10687 10686 10685 10684 10683 10682 10681 10679 10678 10676 10674 10672 10670 10668 10666 10663 10660 10658 10654 10651 10648 10644 10640 10636 10632 10628 10624 10619 10615 10611 10607 10603 10598 10592 10590 10585 10581 10578 10569 10557 10551 10544 10535 10530 10526 10520 10514 10507 10500 10494 10484 10476 10473 10469 10464 10459 10453 10448 10445 10440 10432 10425 10417 10410 10404 10399 10395 10389 10381 10373 10365 10357 10350 10341 10332 10323
10689 10689 10688 10688 10688 10687 10687 10687 10686 10686 10686 10685 10684 10683 10682 10681 10680 10678 10677 10675 10674 10673 10670 10668 10667 10664 10662 10659 10656 10653 10650 10646 10643 10639 10635 10631 10627 10623 10619 10614 10609 10606 10601 10597 10593 10587 10582 10579 10574 10572 10567 10556 10549 10543 10534 10526 10522 10516 10510 10504 10497 10492 10483 10471 10466 10464 10459 10454 10450 10443 10438 10434 10428 10422 10415 10407 10399 10394 10389 10383 10376 10368 10360 10352 10344 10336 10327 10318
10687 10686 10686 10686 10686 10685 10684 10684 10683 10683 10683 10682 10681 10680 10679 10678 10676 10675 10674 10672 10670 10669 10667 10664 10662 10660 10657 10655 10651 10648 10645 10641 10638 10634 10630 10626 10622 10617 10613 10609 10603 10599 10595 10591 10587 10581 10576 10572 10567 10564 10562 10554 10545 10540 10532 10523 10519 10513 10506 10501 10495 10489 10481 10468 10458 10458 10455 10448 10443 10438 10432 10427 10422 10417 10413 10406 10396 10388 10383 10378 10371 10364 10357 10348 10339 10330 10322 10314